Piney Island, NC

4:33 PM EDT on April 24, 2017 (GMT -0400)
Piney Island

Weather History for KNBT - December, 2011

Change the Weather History Date:

Saturday, December 3, 2011

  Actual Average (KMRH) Record (KMRH)
Temperature  
Mean Temperature 52 °F -  
Max Temperature 59 °F 62 °F 74 °F (1982)
Min Temperature 46 °F 40 °F 28 °F (2008)
Degree Days  
Heating Degree Days 12    
Growing Degree Days 2 (Base 50)    
Moisture  
Dew Point 43 °F    
Average Humidity 70    
Maximum Humidity 83    
Minimum Humidity 58    
Precipitation  
Precipitation 0.00 in - - ()
Sea Level Pressure  
Sea Level Pressure 30.54 in    
Wind  
Wind Speed 7 mph (NNE)    
Max Wind Speed 16 mph    
Max Gust Speed 21 mph    
Visibility 10 miles    
Events      
Averages and records for this station are not official NWS values.
T = Trace of Precipitation, MM = Missing Value Source: NWS Daily Summary

Daily Weather History Graph

Daily Weather History Graph

Search for Another Location

Airport or City:

Trip Planner

Search our weather history database for the weather conditions in past years. The results will help you decide how hot, cold, wet, or windy it might be!

Date:

Astronomy

Dec. 03, 2011 Rise Set
Actual Time 6:57 AM EST 4:53 PM EST
Civil Twilight 6:29 AM EST 5:21 PM EST
Nautical Twilight 5:57 AM EST 5:53 PM EST
Astronomical Twilight 5:27 AM EST 6:23 PM EST
Moon 12:46 PM EST (12/3) 12:36 AM EST (12/3)
Length of Visible Light 10h 52m
Length of Day
9h 56m
Waxing Gibbous, 62% of the Moon is Illuminated
Dec 3
Waxing Gibbous
Dec 10
Full
Dec 17
Last Quarter
Dec 24
New
Jan 1
First Quarter

Hourly Weather History & Observations

Time (EST) Temp. Dew Point Humidity Pressure Visibility Wind Dir Wind Speed Gust Speed Precip Events Conditions
12:56 AM 46.9 °F 42.1 °F 83% 30.47 in 10.0 mi Calm Calm - N/A   Clear
1:56 AM 48.0 °F 37.9 °F 68% 30.48 in 10.0 mi Calm Calm - N/A   Clear
2:56 AM 50.0 °F 44.1 °F 80% 30.49 in 10.0 mi North 4.6 mph - N/A   Clear
3:56 AM 48.0 °F 39.9 °F 74% 30.49 in 10.0 mi North 9.2 mph - N/A   Clear
4:56 AM 48.0 °F 39.0 °F 71% 30.50 in 10.0 mi North 8.1 mph - N/A   Clear
5:56 AM 51.1 °F 43.0 °F 74% 30.52 in 10.0 mi NNE 11.5 mph - N/A   Clear
6:56 AM 51.1 °F 44.1 °F 77% 30.54 in 10.0 mi NNE 9.2 mph - N/A   Clear
7:56 AM 53.1 °F 46.0 °F 77% 30.56 in 10.0 mi NNE 11.5 mph - N/A   Clear
8:56 AM 55.0 °F 45.0 °F 69% 30.58 in 10.0 mi NNE 13.8 mph - N/A   Clear
9:56 AM 55.9 °F 46.0 °F 69% 30.59 in 10.0 mi NE 12.7 mph - N/A   Clear
10:56 AM 57.9 °F 45.0 °F 62% 30.59 in 10.0 mi NE 16.1 mph - N/A   Clear
11:56 AM 57.9 °F 44.1 °F 60% 30.58 in 10.0 mi NE 13.8 mph 20.7 mph N/A   Clear
12:56 PM 59.0 °F 44.1 °F 58% 30.56 in 10.0 mi NE 12.7 mph 19.6 mph N/A   Clear
1:56 PM 59.0 °F 44.1 °F 58% 30.55 in 10.0 mi NE 11.5 mph - N/A   Clear
2:56 PM 57.9 °F 43.0 °F 58% 30.55 in 10.0 mi NE 12.7 mph - N/A   Clear
3:56 PM 57.0 °F 45.0 °F 64% 30.55 in 10.0 mi NE 10.4 mph - N/A   Clear
4:56 PM 55.0 °F 44.1 °F 67% 30.56 in 10.0 mi NE 11.5 mph - N/A   Clear
5:56 PM 54.0 °F 44.1 °F 69% 30.58 in 10.0 mi NE 11.5 mph - N/A   Clear
6:56 PM 53.1 °F 43.0 °F 69% 30.57 in 10.0 mi NNE 11.5 mph - N/A   Clear
7:56 PM 53.1 °F 43.0 °F 69% 30.57 in 10.0 mi NNE 9.2 mph - N/A   Clear
8:56 PM 52.0 °F 44.1 °F 74% 30.56 in 10.0 mi North 6.9 mph - N/A   Clear
9:56 PM 51.1 °F 44.1 °F 77% 30.55 in 10.0 mi NNE 8.1 mph - N/A   Clear
11:56 PM 52.0 °F 45.0 °F 77% 30.53 in 10.0 mi NNE 8.1 mph - N/A   Clear